Flag for U.S.A. Weather past 2 weeks in Oklahoma City, Oklahoma, U.S.A.

Now
66 °F

Sunny.


Feels Like: 66 °F
Forecast: 58 / 79 °F
Wind: 7 mph from South

Location: Will Rogers World Airport

Current Time: Oct 22, 2014 at 11:12:06 AM

Latest Report: Oct 22, 2014 at 9:52 AM


Visibility: 9 mi

Pressure: 30.14 "Hg

Humidity: 81%

Dew point: 60 °F

Location of Oklahoma CityLocation

Historic Weather in Oklahoma City — Graph

°F

Oklahoma City temperature yesterday

Maximum temperature yesterday: 83 °F (at 12:52 PM)
Minimum temperature yesterday: 60 °F (at 3:52 AM)
Average temperature yesterday: 69 °F

Past Weeks' High & Low Weather Summary

 TemperatureHumidityPressure
High92 °F (Oct 7, 2:52 PM)94% (Oct 10, 6:04 PM)30.18 "Hg (Oct 10, 6:04 PM)
Low45 °F (Oct 15, 3:52 AM)21% (Oct 15, 3:52 PM)29.51 "Hg (Oct 13, 4:59 AM)
Average66 °F66%29.94 "Hg
* Reported Oct 7 9:52 AM — Oct 22 9:52 AM, Oklahoma City, Weather by CustomWeather, © 2014

Note: Actual official high and low records may vary slightly from our data, if they occured in-between our weather recording intervals... More about our weather records

Advertising

Oklahoma City weather history for previous 24 hours

 ConditionsComfort  
Time TempWeatherWind HumidityBarometerVisibility
9:52 AM
Oct 22
66 °FSunny.7 mph81%30.14 "Hg9 mi
8:52 AM60 °FFog.5 mph93%30.13 "Hg3 mi
7:52 AM55 °FFog.6 mph93%30.11 "Hg3 mi
6:52 AM56 °FFog.No wind90%30.09 "Hg5 mi
5:52 AM57 °FFog.5 mph90%30.06 "Hg5 mi
4:52 AM57 °FFog.3 mph93%30.05 "Hg5 mi
3:52 AM58 °FFog.No wind90%30.04 "Hg6 mi
2:52 AM59 °FClear.5 mph90%30.04 "Hg9 mi
1:52 AM59 °FClear.6 mph90%30.03 "Hg10 mi
12:52 AM60 °FClear.6 mph86%30.03 "Hg10 mi
11:52 PM
Oct 21
61 °FClear.7 mph83%30.04 "Hg10 mi
10:52 PM63 °FClear.6 mph81%30.04 "Hg10 mi
9:52 PM65 °FClear.5 mph76%30.04 "Hg10 mi
8:52 PM66 °FClear.5 mph75%30.03 "Hg10 mi
7:52 PM68 °FClear.8 mph70%30.01 "Hg10 mi
6:52 PM72 °FScattered clouds.8 mph59%30.00 "Hg10 mi
5:52 PM78 °FPassing clouds.6 mph48%29.99 "Hg10 mi
4:52 PM81 °FPassing clouds.14 mph42%29.99 "Hg10 mi
3:52 PM82 °FScattered clouds.13 mph41%30.00 "Hg10 mi
2:52 PM82 °FScattered clouds.12 mph43%30.00 "Hg10 mi
1:52 PM82 °FPassing clouds.8 mph43%30.02 "Hg10 mi
12:52 PM83 °FScattered clouds.9 mph43%30.04 "Hg10 mi
11:52 AM80 °FPassing clouds.8 mph47%30.06 "Hg10 mi
Weather by CustomWeather, © 2014

See weather overviewHow to use our weather pages